Météo par heure à Abaeté

Ce jour, 2 Décembre, Mercredi

Heure Température Précipitation Vent Pression Humidité
00:00 +21°C° 1 mm 2 m/s 705 mmHg 89%
01:00 +22°C° 1.2 mm 1 m/s 705 mmHg 90%
02:00 +22°C° 1.2 mm 1 m/s 705 mmHg 92%
03:00 +20°C° 0 mm 0 m/s 704 mmHg 92%
04:00 +20°C° 0.7 mm 0 m/s 704 mmHg 92%
05:00 +22°C° 0.7 mm 1 m/s 705 mmHg 92%
06:00 +22°C° 0.7 mm 1 m/s 705 mmHg 92%
07:00 +22°C° 0.1 mm 0 m/s 706 mmHg 86%
08:00 +24°C° 0.1 mm 0 m/s 706 mmHg 80%
09:00 +26°C° 0 mm 0 m/s 707 mmHg 69%
10:00 +29°C° 0.4 mm 1 m/s 707 mmHg 65%
11:00 +30°C° 0.4 mm 1 m/s 707 mmHg 60%
12:00 +31°C° 0.4 mm 1 m/s 706 mmHg 56%
13:00 +31°C° 0.7 mm 1 m/s 706 mmHg 56%
14:00 +31°C° 0.7 mm 1 m/s 705 mmHg 56%
15:00 +31°C° 0.7 mm 2 m/s 704 mmHg 55%
16:00 +30°C° 0 mm 1 m/s 704 mmHg 60%
17:00 +30°C° 0 mm 1 m/s 704 mmHg 64%
18:00 +29°C° 0 mm 1 m/s 704 mmHg 68%
19:00 +28°C° 0.6 mm 1 m/s 704 mmHg 71%
20:00 +27°C° 0.6 mm 1 m/s 705 mmHg 75%
21:00 +24°C° 0.6 mm 0 m/s 705 mmHg 78%
22:00 +23°C° 1 mm 0 m/s 705 mmHg 82%
23:00 +23°C° 1 mm 0 m/s 705 mmHg 85%

Demain, 3 Décembre, Jeudi

Heure Température Précipitation Vent Pression Humidité
00:00 +22°C° 1 mm 0 m/s 705 mmHg 89%
01:00 +22°C° 0.8 mm 0 m/s 705 mmHg 90%
02:00 +22°C° 0.8 mm 0 m/s 704 mmHg 90%
03:00 +22°C° 0.8 mm 0 m/s 704 mmHg 91%
04:00 +22°C° 0.1 mm 0 m/s 704 mmHg 91%
05:00 +22°C° 0.1 mm 0 m/s 704 mmHg 91%
06:00 +22°C° 0.1 mm 0 m/s 704 mmHg 91%
07:00 +25°C° 0.3 mm 1 m/s 705 mmHg 83%
08:00 +27°C° 0.3 mm 1 m/s 706 mmHg 75%
09:00 +29°C° 0.3 mm 2 m/s 706 mmHg 67%
10:00 +30°C° 0.7 mm 2 m/s 706 mmHg 64%
11:00 +31°C° 0.7 mm 3 m/s 706 mmHg 61%
12:00 +33°C° 0.7 mm 4 m/s 705 mmHg 57%
13:00 +33°C° 0.6 mm 4 m/s 705 mmHg 57%
14:00 +33°C° 0.6 mm 4 m/s 705 mmHg 58%
15:00 +33°C° 0.6 mm 3 m/s 704 mmHg 58%
16:00 +30°C° 0.1 mm 3 m/s 704 mmHg 63%
17:00 +29°C° 0.1 mm 3 m/s 704 mmHg 68%
18:00 +28°C° 0.1 mm 2 m/s 704 mmHg 73%
19:00 +27°C° 0.1 mm 2 m/s 705 mmHg 74%
20:00 +27°C° 0.1 mm 1 m/s 705 mmHg 75%
21:00 +26°C° 0.1 mm 1 m/s 706 mmHg 76%
22:00 +25°C° 0.6 mm 2 m/s 706 mmHg 81%
23:00 +25°C° 0.6 mm 2 m/s 706 mmHg 85%

Après-demain, 4 Décembre, Vendredi

Heure Température Précipitation Vent Pression Humidité
00:00 +24°C° 0.6 mm 3 m/s 706 mmHg 90%
01:00 +22°C° 0.2 mm 3 m/s 706 mmHg 92%
02:00 +23°C° 0.2 mm 2 m/s 706 mmHg 93%
03:00 +23°C° 0.2 mm 2 m/s 705 mmHg 94%
04:00 +23°C° 0.1 mm 2 m/s 706 mmHg 94%
05:00 +23°C° 0.1 mm 2 m/s 706 mmHg 94%
06:00 +23°C° 0.1 mm 1 m/s 706 mmHg 93%
07:00 +25°C° 0 mm 1 m/s 707 mmHg 87%
08:00 +26°C° 0 mm 1 m/s 707 mmHg 81%
09:00 +27°C° 0 mm 1 m/s 708 mmHg 74%
10:00 +29°C° 0.1 mm 1 m/s 707 mmHg 68%
11:00 +30°C° 0.1 mm 1 m/s 707 mmHg 62%
12:00 +31°C° 0.1 mm 2 m/s 707 mmHg 56%
13:00 +32°C° 0.1 mm 2 m/s 706 mmHg 54%
14:00 +32°C° 0.1 mm 2 m/s 706 mmHg 52%
15:00 +34°C° 0.1 mm 2 m/s 705 mmHg 50%
16:00 +32°C° 0.2 mm 2 m/s 705 mmHg 57%
17:00 +30°C° 0.2 mm 1 m/s 705 mmHg 63%
18:00 +29°C° 0.2 mm 1 m/s 705 mmHg 70%
19:00 +28°C° 0.8 mm 1 m/s 705 mmHg 74%
20:00 +27°C° 0.8 mm 1 m/s 706 mmHg 78%
21:00 +26°C° 0.8 mm 1 m/s 706 mmHg 82%
22:00 +26°C° 0.9 mm 1 m/s 706 mmHg 84%
23:00 +25°C° 0.9 mm 1 m/s 706 mmHg 85%

5 Décembre, Samedi

Heure Température Précipitation Vent Pression Humidité
00:00 +25°C° 0.9 mm 1 m/s 706 mmHg 87%
01:00 +25°C° 0.1 mm 1 m/s 705 mmHg 88%
02:00 +24°C° 0.1 mm 1 m/s 705 mmHg 89%
03:00 +24°C° 0.1 mm 1 m/s 705 mmHg 90%
04:00 +24°C° 0.1 mm 1 m/s 705 mmHg 91%
05:00 +24°C° 0.1 mm 1 m/s 706 mmHg 91%
06:00 +24°C° 0.1 mm 1 m/s 706 mmHg 92%
07:00 +25°C° 0.1 mm 2 m/s 707 mmHg 86%
08:00 +27°C° 0.1 mm 2 m/s 707 mmHg 79%
09:00 +28°C° 0.1 mm 2 m/s 708 mmHg 73%
10:00 +29°C° 0.1 mm 2 m/s 707 mmHg 68%
11:00 +31°C° 0.1 mm 2 m/s 707 mmHg 63%
12:00 +32°C° 0.1 mm 2 m/s 706 mmHg 58%
13:00 +32°C° 0 mm 2 m/s 706 mmHg 57%
14:00 +32°C° 0 mm 2 m/s 705 mmHg 56%
15:00 +34°C° 0 mm 2 m/s 705 mmHg 54%
16:00 +31°C° 0.4 mm 2 m/s 705 mmHg 61%
17:00 +30°C° 0.4 mm 2 m/s 704 mmHg 68%
18:00 +29°C° 0.4 mm 3 m/s 704 mmHg 74%
19:00 +28°C° 1 mm 3 m/s 704 mmHg 79%
20:00 +26°C° 1 mm 2 m/s 705 mmHg 83%
21:00 +25°C° 1 mm 2 m/s 705 mmHg 88%
22:00 +25°C° 1.1 mm 2 m/s 705 mmHg 88%
23:00 +25°C° 1.1 mm 3 m/s 705 mmHg 88%

6 Décembre, Dimanche

Heure Température Précipitation Vent Pression Humidité
00:00 +24°C° 1.1 mm 3 m/s 705 mmHg 88%
01:00 +24°C° 2 mm 3 m/s 705 mmHg 90%
02:00 +24°C° 2 mm 2 m/s 704 mmHg 91%
03:00 +24°C° 2 mm 2 m/s 704 mmHg 93%
04:00 +23°C° 1 mm 2 m/s 704 mmHg 93%
05:00 +23°C° 1 mm 2 m/s 705 mmHg 94%
06:00 +23°C° 1 mm 2 m/s 705 mmHg 95%
07:00 +24°C° 1 mm 2 m/s 705 mmHg 90%
08:00 +26°C° 1 mm 2 m/s 706 mmHg 85%
09:00 +27°C° 1 mm 2 m/s 706 mmHg 80%
10:00 +28°C° 2.6 mm 2 m/s 706 mmHg 78%
11:00 +28°C° 2.6 mm 2 m/s 706 mmHg 76%
12:00 +29°C° 2.6 mm 2 m/s 705 mmHg 75%
13:00 +29°C° 2.2 mm 2 m/s 705 mmHg 77%
14:00 +28°C° 2.2 mm 2 m/s 704 mmHg 79%
15:00 +28°C° 2.2 mm 1 m/s 703 mmHg 81%
16:00 +27°C° 0.3 mm 1 m/s 703 mmHg 82%
17:00 +27°C° 0.3 mm 1 m/s 703 mmHg 84%
18:00 +27°C° 0.3 mm 1 m/s 703 mmHg 85%
19:00 +26°C° 0.5 mm 1 m/s 703 mmHg 87%
20:00 +25°C° 0.5 mm 2 m/s 704 mmHg 88%
21:00 +25°C° 0.5 mm 2 m/s 704 mmHg 90%
22:00 +24°C° 0.6 mm 2 m/s 704 mmHg 90%
23:00 +24°C° 0.6 mm 2 m/s 704 mmHg 90%

7 Décembre, Lundi

Heure Température Précipitation Vent Pression Humidité
00:00 +24°C° 0.6 mm 2 m/s 704 mmHg 91%
01:00 +24°C° 0.1 mm 2 m/s 704 mmHg 92%
02:00 +23°C° 0.1 mm 2 m/s 703 mmHg 93%
03:00 +23°C° 0.1 mm 2 m/s 703 mmHg 94%
04:00 +23°C° 0.8 mm 2 m/s 703 mmHg 94%
05:00 +23°C° 0.8 mm 2 m/s 704 mmHg 95%
06:00 +23°C° 0.8 mm 2 m/s 704 mmHg 95%
07:00 +24°C° 0.4 mm 2 m/s 704 mmHg 93%
08:00 +25°C° 0.4 mm 2 m/s 704 mmHg 90%
09:00 +25°C° 0.4 mm 2 m/s 705 mmHg 87%
10:00 +27°C° 2 mm 3 m/s 705 mmHg 83%
11:00 +28°C° 2 mm 3 m/s 704 mmHg 78%
12:00 +29°C° 2 mm 3 m/s 704 mmHg 74%
13:00 +29°C° 2.6 mm 3 m/s 704 mmHg 75%
14:00 +29°C° 2.6 mm 3 m/s 703 mmHg 77%
15:00 +29°C° 2.6 mm 2 m/s 703 mmHg 79%
16:00 +28°C° 2.1 mm 2 m/s 703 mmHg 82%
17:00 +27°C° 2.1 mm 2 m/s 703 mmHg 84%
18:00 +26°C° 2.1 mm 2 m/s 703 mmHg 87%
19:00 +25°C° 0.5 mm 2 m/s 703 mmHg 89%
20:00 +24°C° 0.5 mm 2 m/s 704 mmHg 90%
21:00 +24°C° 0.5 mm 2 m/s 704 mmHg 92%
22:00 +23°C° 0.1 mm 2 m/s 704 mmHg 92%
23:00 +23°C° 0.1 mm 1 m/s 704 mmHg 93%
Voir plus

Nous avons besoin de votre consentement

Meteoprog et ses fournisseurs de services peuvent stocker et accéder à des données personnelles telles que des cookies, des identifiants d'appareils ou d'autres technologies similaires sur votre appareil et traiter ces données pour personnaliser le contenu et les publicités, ainsi que pour fournir des fonctionnalités de médias sociaux et analyser le trafic.

  • Stocker et/ou accéder à des informations sur votre appareil

    Des cookies, des identifiants d'appareils ou d'autres informations peuvent être stockés ou accessibles sur votre appareil aux fins indiquées ci-dessus.

  • Annonces et contenus personnalisés, mesure des annonces et des contenus, connaissance de l'audience et développement de produits

    Les annonces et le contenu peuvent être personnalisés en fonction d'un profil. D'autres données peuvent être ajoutées pour mieux personnaliser les annonces et le contenu. Les performances des publicités et du contenu peuvent être mesurées. Il est possible d'obtenir des informations sur le public qui a vu les publicités et le contenu. Ces données peuvent être utilisées pour développer ou améliorer l'expérience de l'utilisateur, les systèmes et les logiciels.

En cliquant sur "J'accepte", vous autorisez l'utilisation de cookies, des identifiants d'appareils, des balises web ou d'autres technologies similaires. Vos paramètres peuvent être modifiés dans le navigateur de votre appareil.

Dans certains cas, des intérêts légitimes peuvent être invoqués plutôt qu'un consentement. Vous pouvez en savoir plus à ce sujet dans notre Politique de confidentialité et de cookies.